www.pogodaiklimat.ru

Архив погоды в Котласе (Архангельская область, Россия)

Время
(UTC), дата
09 26.09
12 26.09
15 26.09
18 26.09
21 26.09
00 27.09
03 27.09
06 27.09
09 27.09
12 27.09
15 27.09
18 27.09
21 27.09
00 28.09
03 28.09
06 28.09
09 28.09
12 28.09
15 28.09
18 28.09
21 28.09
00 29.09
03 29.09
06 29.09
09 29.09
12 29.09
15 29.09
18 29.09
21 29.09
00 30.09
03 30.09
06 30.09
09 30.09
12 30.09
15 30.09
18 30.09
21 30.09
00 1.10
03 1.10
06 1.10
09 1.10
12 1.10
15 1.10
18 1.10
21 1.10
00 2.10
03 2.10
06 2.10
09 2.10
12 2.10
15 2.10
18 2.10
21 2.10
00 3.10
03 3.10
06 3.10
Ветер
(напр.,м/с)
Видим. Явления Облачность Т
(С)
Тd
(С)
f
(%)
Тe
(С)
Тes
(С)
Комфортность P
(гПа)
Po
(гПа)
Тmin
(С)
Tmax
(С)
R
(мм)
R24
(мм)
S
(см)
В 4
{10}
50 км 10/10 840 м
[Sc]
+6.0 +0.9 70 +2 +2 прохладно 1012.0 1005.1
В 3 50 км 10/10 1000 м
[Sc]
+6.4 +1.4 70 +4 +4 прохладно 1013.6 1006.7
В 2 10 км 10/10 1200 м
[Sc]
+6.4 +1.4 70 +4 +4 по сезону 1015.0 1008.1 +6.4
СВ 2 10 км 10/8 1230 м
[Sc Ac und]
+5.9 +1.7 74 +4 +4 по сезону 1015.3 1008.4
В 2 10 км 4/0
[Ac trans Ci fib]
+2.9 -0.4 79 0 0 прохладно 1016.3 1009.4
СВ 1 10 км 3/0
[Ci fib]
-0.1 -1.0 94 -2 -2 прохладно 1017.3 1010.2
СВ 1 50 км 9/0
[Ac trans]
-0.1 -1.0 94 -2 -2 прохладно 1018.4 1011.3 -0.8
В 2 50 км 9/3 1000 м
[Sc Ac trans]
+2.3 -0.5 82 -1 -0 прохладно 1019.5 1012.5
В 4 50 км 8/3 1500 м
[Sc Ac trans]
+9.1 -0.2 52 +7 +8 по сезону 1019.6 1012.7
В 3 50 км 10/8 1080 м
[Sc Ac und]
+8.6 +0.6 57 +6 +7 по сезону 1020.5 1013.6
В 1 10 км 10/4 1000 м
[Sc Ac und]
+7.0 +2.7 74 +6 +6 по сезону 1021.1 1014.2 +9.3
В 1 10 км 10/8 1230 м
[Sc Ac und]
+6.1 +2.2 76 +5 +5 по сезону 1021.6 1014.6
В 1 10 км 8/5 1000 м
[Sc Ci fib]
+3.8 +0.7 80 +2 +2 по сезону 1022.1 1015.1
В 1 10 км 1/1 600 м
[Sc]
-0.2 -0.5 98 -2 -2 прохладно 1022.7 1015.6
штиль 0 50 км 3/0
[Ac trans Ci fib]
-1.4 -1.7 98 -3 -3 прохладно 1022.9 1015.8 -1.4
В 4 50 км 3/0
[Ci fib]
+4.2 -0.7 70 0 +1 по сезону 1023.3 1016.3
В 5
{10}
50 км 3/0
[Ci fib]
+7.3 -2.7 49 +4 +6 по сезону 1022.7 1015.8
В 4
{10}
50 км 3/0
[Ci fib]
+7.9 -3.0 46 +5 +6 по сезону 1021.5 1014.6
В 2
{10}
10 км 3/0
[Ci fib]
+4.7 -2.3 60 +2 +2 по сезону 1021.0 1014.0 +8.1
В 2 10 км 1/0
[Ci fib]
+1.6 -2.8 73 -2 -2 прохладно 1021.4 1014.3
СВ 2 10 км ясно -0.6 -3.0 84 -4 -4 холодно 1020.9 1013.8
СВ 3 10 км ясно -1.4 -4.0 82 -6 -6 холодно 1020.1 1013.0
В 3 50 км 3/0
[Ac trans Ci fib]
-2.2 -4.1 87 -7 -7 холодно 1018.9 1011.8 -2.3
В 4 50 км 10/3 1000 м
[Sc Ac und]
+0.6 -3.4 75 -5 -4 холодно 1018.6 1011.5
В 4 4000 м слаб. ливневой снег 10/4 1000 м
[Cb cap Ac und]
+3.2 -3.6 61 -1 -1 прохладно 1018.6 1011.6
В 3 4000 м слаб. ливневой снег 10/4 600 м
[Cb cap Ac und]
+2.4 -0.3 82 -2 -2 холодно 1019.1 1012.1
В 2 4000 м слаб. ливневой снег 10/6 1080 м
[Cb cap Ac und]
+2.4 +0.3 86 -1 -1 прохладно 1019.0 1012.0 +3.2 2
В 3 4000 м слаб. крупа {ливн. снег} 10/10 840 м
[Cb cap]
+2.2 -0.3 84 -2 -2 прохладно 1019.3 1012.3
В 3 10 км слаб. ливневой дождь 10/8 750 м
[Cb cap Ac und]
+1.8 +1.5 98 -3 -3 прохладно 1018.9 1011.9
ЮВ 3 10 км {ливн. дождь} 10/6 450 м
[Cb cap Ac und]
+2.3 +2.1 99 -2 -2 прохладно 1019.5 1012.5
ЮВ 3 10 км 10/10 270 м
[Sc]
+2.9 +2.7 99 -1 -1 прохладно 1019.8 1012.8 +1.8 1
ЮВ 4 50 км 10/9 240 м
[Sc]
+4.2 +3.7 97 -0 -0 прохладно 1020.6 1013.6
ЮВ 4 50 км 10/9 300 м
[Sc Ac und]
+6.2 +4.8 91 +2 +2 прохладно 1021.3 1014.3
ЮВ 4 50 км 10/9 330 м
[Sc]
+6.7 +5.1 90 +3 +3 прохладно 1021.4 1014.5
ЮВ 5 10 км 10/9 270 м
[Sc]
+6.7 +5.3 91 +2 +2 прохладно 1021.5 1014.6 +6.9
ЮВ 4 10 км 10/6 480 м
[Cb cap Ac und]
+7.2 +6.4 95 +4 +4 по сезону 1020.6 1013.7
ЮВ 4 4000 м слаб. ливневой дождь 10/6 540 м
[Cb cap Ac und]
+7.2 +7.0 99 +3 +3 по сезону 1019.4 1012.5
ЮВ 4 4000 м слаб. ливневой дождь 10/8 450 м
[Cb cap Ac und]
+8.0 +7.4 96 +5 +5 по сезону 1018.0 1011.1
Ю 4 4000 м слаб. ливневой дождь 10/8 400 м
[Cb cap Ac und]
+8.8 +8.2 96 +6 +6 тепло 1016.6 1009.8 +6.7 2
ЮВ 3 10 км слаб. ливневой дождь 10/10 360 м
[Cb cap]
+9.7 +9.0 95 +7 +7 тепло 1016.1 1009.3
Ю 4 10 км слаб. ливневой дождь 10/10 330 м
[Cb cap]
+11.1 +10.3 95 +9 +9 тепло 1016.3 1009.6
ЮВ 2 50 км {ливн. дождь} 9/8 420 м
[Sc Ac trans]
+11.7 +11.0 95 +10 +11 тепло 1016.4 1009.7
СЗ 1 10 км 10/9 800 м
[Sc Ac und]
+10.8 +8.8 87 +10 +10 тепло 1016.3 1009.5 +12.0 0.5
В 1 10 км слаб. ливневой дождь 10/8 570 м
[Cb cap Ac und]
+9.2 +7.7 90 +9 +9 тепло 1015.7 1008.9
В 1 4000 м морось {ливн. дождь} 10/10 270 м
[St]
+8.6 +8.0 96 +8 +8 тепло 1013.7 1006.9
В 2 4000 м слаб. ливневой дождь {морось} 10/10 400 м
[Cb cap]
+9.3 +9.0 98 +7 +7 тепло 1011.2 1004.4
ЮВ 2 4000 м дымка {ливн. дождь} 10/10 240 м
[St]
+9.2 +8.6 96 +7 +7 тепло 1009.8 1003.0 +8.3 5
ЮВ 4 50 км {ливн. дождь} 10/8 240 м
[St Ac und]
+9.2 +8.4 95 +6 +6 по сезону 1008.1 1001.3
В 2 4000 м слаб. морось 10/10 240 м
[St]
+9.4 +8.6 95 +8 +8 тепло 1006.1 999.4
В 2 4000 м слаб. дождь {морось} 10/8 360 м
[Frnb As op]
+9.6 +9.0 96 +8 +8 по сезону 1003.4 996.7
ЮВ 3 4000 м слаб. дождь 10/8 330 м
[Frnb As op]
+11.7 +11.1 96 +10 +10 тепло 1001.8 995.2 +11.7 9
ЮВ 3 10 км {дождь} 9/5 300 м
[Cb cap Ac trans]
+12.6 +11.9 95 +11 +11 тепло 1002.0 995.4
Ю 3 10 км {ливн. дождь} 10/8 450 м
[Sc Ac und]
+11.6 +10.9 95 +10 +10 тепло 1003.9 997.3
З 2 10 км {ливн. дождь} 10/8 750 м
[Sc Ac und]
+9.4 +8.6 95 +8 +8 тепло 1006.3 999.6
З 2 10 км 10/9 330 м
[Sc Ac und]
+8.7 +7.8 94 +7 +7 тепло 1008.8 1002.0 +8.7 0.4
нст 1 50 км 10/8 240 м
[Sc Ac und]
+8.6 +7.7 94 +8 +8 тепло 1011.2 1004.4 +8.1
Местоположение метеостанции Котлас (Архангельская область, Россия): широта 61.23 долгота 46.72 высота над уровнем моря 56 м.
В архиве по умолчанию представлена погода в Котласе за последнюю неделю. Архивные данные за месяц целиком и за предыдущие месяцы, начиная с января 2011 года, Вы можете получить, выбрав интересующий диапазон дат из раскрывающегося списка и нажав кнопку "Найти!".
*Определитесь, кто Вы:
Внимание! Время в таблицах - всемирное. Для получения местного времени необходимо прибавить поправку, которая равна 3 ч.
Смотрите также архив погоды в соседних городах и на ближайших метеорологических станциях:
Партнеры нашего сайта:      
Пояснения к столбцам:
  • Ветер - указаны скорость ветра в м/с - средняя за 10 мин, порывы в срок и между сроками (в фигурных скобках) и направление, откуда дует ветер: С - северный,
  • СВ - северо-восточный, В - восточный, ЮВ - юго-восточный, Ю - южный, ЮЗ - юго-западный, З - западный, СЗ - северо-западный.
  • Видимость - горизонтальная дальность видимости в метрах или километрах. При видимости от 1 до 10 км при отсутствии осадков обычно наблюдается дымка, при ухудшении видимости до 1 км и менее - туман. В сухую погоду видимость может ухудшаться дымом, пылью или мглою.
  • Явления - указаны атмосферные явления, наблюдавшиеся в срок или в последний час перед сроком; фигурными скобками обозначены явления, наблюдавшиеся между сроками (за 1-3 часа до срока); квадратными скобками обозначены град или гололедные отложения с указанием их диаметра в мм.
  • Облачность - указаны через наклонную черту общая и нижняя облачность в баллах и высота нижней границы облаков в метрах; квадратными скобками обозначены формы облаков: Ci - перистые, Cs - перисто-слоистые, Cc - перисто-кучевые, Ac - высококучевые, As - высокослоистые, Sc - слоисто-кучевые, Ns - слоисто-дождевые, Cu - кучевые, Cb - кучево-дождевые. Подробнее классификацию облаков см. в Атласе облаков (PDF).
  • T - Температура воздуха - температура, измеренная на высоте 2 м над землей.
  • Td - Температура точки росы - температура, при понижении до которой содержащийся в воздухе водяной пар достигнет насыщения.
  • f - Относительная влажность воздуха - влажноcть воздуха, измеренная на высоте 2 м над землей.
  • Te - Эффективная температура - температура, которую ощущает одетый по сезону человек в тени. Характеристика душности погоды. При расчете учитывается влияние влажности воздуха и скорости ветра на теплоощущения человека.
  • Tes - Эффективная температура на солнце - температура, которую ощущает человек, с поправкой на солнечный нагрев. Характеристика знойности погоды. Зависит от высоты солнца над горизонтом, облачности и скорости ветра. Ночью, в пасмурную погоду, а также при ветре 12 м/с и более поправка равна нулю.
  • P - Атмосферное давление - приведенное к уровню моря атмосферное давление.
  • Po - Атмосферное давление - измеренное на уровне метеостанции атмосферное давление.
  • Tmin - Минимальная температура - минимум температуры воздуха на высоте 2 м над землей.
  • Tmax - Максимальная температура - максимум температуры воздуха на высоте 2 м над землей.
  • R - Количество осадков - Количество выпавших осадков за период времени, мм. При наведении курсора мыши на число - период времени, за который выпало указанное количество осадков.
  • R24 - Количество осадков - Количество выпавших осадков за 24 часа, мм.
  • S - Снежный покров - Высота снежного покрова, см. При наведении курсора мыши на число - состояние снежного покрова и степень покрытия местности в баллах.